Theta_e
305 305 306 307 309 306 305 305 309 310 312 314 312 312 314 314 299 297 304 306 307 309 313 317 321 323 323 324 326 327 328 328 329 329 329 328 329 330 332 332 333 334 336 340 347 351 351 349 347 346 346 347 347 348 349 350 351 351 352 352 351 349 348 347 347 348 348 349 348 349 352 351 349 349 349 349 348 347 349 348 350 355 357 355 353 351 351
303 305 305 307 306 306 307 310 311 311 312 313 315 315 316 315 312 312 309 307 308 308 310 316 321 324 326 327 329 328 327 328 328 328 327 327 326 328 331 332 333 334 336 338 341 345 347 347 347 346 345 345 347 347 347 347 348 347 348 347 346 345 345 345 347 347 347 348 348 348 349 349 348 348 348 349 349 347 348 348 348 355 355 354 354 352 351
301 304 306 306 308 307 307 312 313 313 312 314 315 316 317 318 315 315 311 310 309 314 316 316 323 325 329 329 327 326 327 328 329 328 327 326 326 326 328 330 332 333 335 337 340 341 342 343 345 345 344 344 345 345 346 346 346 346 346 344 343 344 345 346 347 347 347 347 347 347 347 348 347 347 347 348 348 347 348 350 352 353 354 352 352 353 352
297 303 304 305 306 309 311 310 311 311 311 310 314 313 318 314 312 314 312 310 311 317 319 323 324 326 326 325 326 327 327 328 329 329 327 326 327 327 328 329 331 333 334 335 337 339 339 340 342 343 343 343 343 343 345 345 346 346 345 343 343 344 346 346 347 347 347 347 347 348 348 347 347 347 348 348 347 347 349 351 352 353 351 352 352 351 351
294 302 303 304 305 304 303 306 309 311 313 315 316 318 319 317 318 313 310 309 317 319 321 320 322 324 324 326 328 327 328 328 329 329 328 328 329 328 328 329 332 333 334 335 336 337 338 339 339 340 341 340 338 337 339 346 347 345 344 343 343 344 346 347 346 347 348 348 348 347 347 347 348 349 348 347 347 348 349 350 353 351 349 350 351 350 346
295 301 303 304 299 293 296 312 316 314 313 315 314 313 316 318 318 315 318 318 321 322 322 319 318 320 324 327 329 331 330 329 330 329 329 329 330 330 330 330 330 332 333 335 336 337 338 339 340 341 341 339 339 340 339 340 342 345 344 343 344 345 347 347 346 347 348 349 349 348 347 348 349 349 348 347 348 348 349 350 349 349 349 347 349 347 345
295 299 300 295 290 293 311 316 316 316 316 316 317 318 318 319 320 319 318 319 320 322 322 322 322 322 324 327 331 332 333 333 331 330 329 329 330 331 330 329 329 329 332 333 335 337 338 340 341 341 341 342 341 340 341 340 342 345 344 344 344 346 348 348 347 347 349 349 349 349 348 348 348 348 348 347 347 348 348 347 345 341 342 344 345 345 345
298 295 294 289 292 305 312 314 316 319 319 317 315 314 317 319 320 320 319 320 322 322 322 324 324 323 325 328 331 331 334 335 332 331 330 331 331 331 331 330 330 331 333 333 335 336 340 342 342 344 344 345 344 343 345 345 345 346 346 346 346 347 348 348 348 348 349 348 348 349 348 347 348 347 346 346 347 347 347 346 346 346 346 343 342 342 344
294 294 294 296 304 305 308 310 313 314 310 312 310 303 310 318 321 322 321 322 322 323 323 323 325 326 325 322 324 330 334 334 335 334 333 333 333 333 333 333 333 333 336 336 338 340 340 345 348 349 349 348 347 347 346 346 347 347 347 346 346 347 347 347 348 348 349 348 349 349 349 348 347 348 347 347 346 348 347 345 345 344 346 344 344 344 344
298 294 291 292 292 291 298 310 315 320 320 320 318 313 307 318 322 324 323 321 323 322 322 323 324 324 318 315 319 325 334 336 335 336 336 335 334 335 335 335 336 337 338 338 341 342 346 350 351 352 352 350 349 348 347 347 346 345 345 344 344 345 345 347 348 348 349 349 349 349 348 348 347 347 346 345 345 349 345 343 343 345 344 343 342 343 345
298 294 289 290 290 294 304 309 315 319 321 321 320 311 304 314 320 323 323 323 323 322 321 322 323 317 313 313 319 327 330 334 336 335 335 335 335 336 336 336 335 336 337 340 343 349 351 350 351 352 352 351 350 348 348 346 345 344 343 343 343 344 344 345 346 347 348 348 347 346 345 345 346 346 345 344 346 347 344 344 343 344 347 344 344 342 343
296 293 291 291 297 298 307 312 316 320 321 322 310 296 298 314 320 323 323 322 324 323 322 323 320 316 311 314 321 328 330 331 336 336 335 335 336 336 337 338 338 338 341 343 345 349 349 349 352 352 352 351 350 348 347 347 345 344 343 344 343 343 344 344 344 345 347 350 347 347 346 344 345 345 345 345 344 343 342 343 344 342 345 345 342 341 342
298 300 293 296 301 311 314 315 318 320 323 315 300 294 304 318 320 322 323 323 324 323 321 321 318 320 323 325 327 329 330 330 333 337 337 336 337 336 337 338 342 340 341 344 347 349 350 351 352 352 352 350 348 348 347 345 345 344 345 345 345 346 345 345 346 347 346 347 347 346 346 346 348 350 347 346 346 344 343 340 342 341 341 339 336 336 337
295 294 293 293 298 309 315 317 318 321 316 302 298 312 321 321 321 322 324 324 325 324 323 321 321 324 327 329 330 329 330 330 333 335 336 337 338 339 341 343 342 341 343 346 348 349 350 352 353 352 351 349 347 347 346 345 345 347 347 347 347 347 346 346 347 347 346 346 349 349 349 350 347 345 344 346 347 343 340 340 340 339 339 340 337 335 335
297 295 293 291 287 303 318 316 316 318 307 308 317 319 321 323 322 323 325 325 324 324 322 324 324 326 327 328 329 330 332 330 333 336 336 337 338 339 341 342 344 346 346 347 348 349 351 352 352 351 350 347 347 346 345 346 350 350 350 350 349 348 347 346 347 347 347 351 351 350 350 349 346 344 343 343 343 344 340 340 340 339 338 338 337 336 338
292 290 291 290 300 310 318 316 309 315 317 320 322 322 319 323 323 323 323 324 325 325 324 324 325 327 327 328 329 330 332 331 335 336 337 338 339 340 342 343 345 348 347 347 347 348 350 351 351 351 349 347 346 345 344 349 351 351 351 350 349 349 349 349 349 348 349 350 350 349 350 347 345 342 341 342 342 343 340 340 338 337 337 341 337 337 339
301 295 299 307 312 316 318 319 319 321 323 323 325 325 323 321 322 325 323 323 325 326 326 326 326 326 327 328 330 330 330 329 334 335 336 337 338 336 335 338 344 348 347 346 347 348 350 350 351 349 349 347 346 344 345 349 350 350 350 350 349 348 348 348 348 349 349 348 348 348 349 347 344 342 341 340 338 338 342 337 337 337 337 341 337 337 339
309 312 312 316 315 315 316 321 324 323 324 325 327 324 322 323 324 325 324 325 326 326 327 326 326 326 328 329 330 330 331 331 334 336 335 334 333 334 334 332 329 329 337 347 347 347 348 350 350 349 349 348 345 345 348 349 349 349 349 348 347 347 347 347 347 348 347 346 347 347 348 346 346 343 343 341 341 339 338 337 337 336 336 338 338 336 338
300 293 309 311 314 316 317 320 323 325 326 324 326 324 324 324 326 326 327 327 327 327 328 329 327 328 329 329 328 328 331 333 333 334 333 333 334 334 333 333 333 331 330 332 344 348 347 349 349 349 349 349 348 348 348 349 349 349 348 347 348 346 345 346 345 345 346 342 343 344 345 343 344 343 341 343 342 340 337 337 338 341 339 335 332 334 336
303 303 309 313 315 317 320 319 318 318 320 322 324 325 325 326 328 328 328 329 328 330 330 331 330 331 332 330 329 331 332 332 332 333 334 334 334 334 333 333 333 332 331 329 329 339 346 347 349 349 349 349 349 349 350 350 349 348 348 347 346 344 344 344 343 342 342 350 342 334 335 336 337 338 339 337 334 332 331 330 330 331 334 334 333 336 336
307 311 313 314 315 316 318 320 321 322 323 323 323 326 327 327 327 327 329 330 329 331 332 333 333 332 332 331 331 331 331 330 330 331 331 333 335 335 333 333 334 332 331 330 330 332 345 348 348 348 349 349 350 349 349 350 349 347 345 347 343 338 338 337 339 343 340 338 334 331 329 327 321 319 322 329 327 324 322 318 324 330 331 330 331 329 332
299 301 306 312 306 306 312 316 322 323 324 325 326 327 327 328 327 326 327 328 330 331 332 333 334 332 333 331 330 330 330 330 331 332 333 334 334 332 333 334 333 333 333 331 330 329 340 348 347 347 347 347 348 349 349 348 347 346 342 338 337 337 337 337 339 340 338 335 332 331 330 328 325 322 317 307 309 324 324 321 312 308 319 327 326 324 321
300 308 312 313 314 314 315 316 320 322 326 328 325 324 325 326 328 328 328 326 327 328 332 335 333 332 334 332 332 331 332 332 333 334 333 332 332 332 334 333 331 332 332 333 332 332 333 343 346 346 345 347 348 350 350 348 344 341 340 339 339 340 341 340 339 340 339 339 337 333 331 329 328 326 322 319 303 302 311 314 305 299 299 303 310 320 327
310 313 313 315 314 314 317 320 322 322 325 327 324 324 325 326 328 328 329 329 327 327 330 332 333 335 334 332 331 330 331 332 330 330 333 334 334 334 335 333 332 333 333 333 333 333 333 340 346 346 346 347 347 347 347 346 344 342 341 341 340 341 342 342 345 344 340 341 341 339 336 332 330 329 325 322 320 304 300 302 303 298 296 297 298 302 310
310 315 316 318 318 319 322 322 322 323 325 326 324 324 325 327 329 329 329 329 330 330 330 330 331 334 333 332 332 330 330 332 333 333 333 333 335 334 334 333 334 333 334 336 338 336 334 335 343 345 345 345 346 346 346 346 345 343 342 342 341 340 342 344 344 348 344 342 343 340 340 340 339 336 331 327 323 320 314 301 298 297 297 297 296 297 298
317 317 318 319 320 321 322 322 322 322 323 324 324 325 328 331 331 330 330 329 330 331 331 330 330 332 335 333 334 333 332 332 333 334 333 334 334 334 334 335 337 338 338 338 337 336 335 336 343 343 343 344 345 345 344 343 343 342 342 341 340 340 339 340 338 337 337 337 337 336 337 337 337 335 339 336 330 324 322 322 321 310 301 296 297 298 295
318 318 318 317 316 317 319 317 317 321 323 325 325 325 327 329 332 331 331 331 332 331 330 331 333 331 331 333 334 334 332 332 333 332 332 333 334 334 336 338 339 339 339 339 339 340 342 341 341 341 341 342 344 345 344 343 342 340 340 340 342 349 350 346 336 335 335 335 335 336 336 336 337 339 340 341 339 334 331 332 331 328 326 322 308 300 307
317 318 319 313 312 315 317 320 322 322 323 325 326 326 328 330 330 330 328 329 329 328 329 330 331 331 332 333 334 333 333 332 331 331 332 332 335 337 339 339 339 339 340 339 339 340 339 338 338 337 337 338 340 340 340 338 337 336 336 336 336 335 336 340 338 335 334 333 333 333 334 336 339 339 341 340 339 337 334 335 332 329 327 324 322 312 303
317 318 319 319 320 321 321 321 321 323 324 325 327 327 328 325 326 327 327 328 329 328 327 330 331 331 332 334 333 332 331 331 331 331 333 333 334 336 338 338 337 338 337 337 336 336 336 336 336 335 336 338 338 337 336 335 334 334 334 333 333 334 335 335 336 334 334 335 335 335 337 337 336 336 338 339 339 335 333 330 329 328 327 326 325 324 323
317 318 319 319 320 321 320 318 319 321 322 323 325 326 326 325 324 324 326 328 328 327 328 329 329 330 331 329 329 330 330 331 333 334 334 334 335 336 337 336 336 334 334 333 333 334 334 334 334 334 335 337 337 335 335 334 333 332 332 332 332 332 332 334 333 333 332 332 334 337 336 334 334 335 337 335 335 332 329 328 327 325 323 325 326 321 320
318 318 319 319 320 320 320 320 321 321 322 323 325 326 326 326 325 323 325 326 327 326 327 327 328 330 329 329 330 331 332 332 332 332 332 333 333 333 333 333 331 330 330 331 332 333 333 332 332 332 334 336 337 336 335 334 333 333 332 331 332 333 333 334 334 332 331 332 332 331 331 330 331 334 333 330 330 328 326 326 325 324 324 322 320 320 319
317 317 317 317 318 318 318 318 319 320 320 323 324 324 324 323 322 323 325 324 324 327 328 328 326 326 327 329 330 332 333 332 332 332 331 331 331 332 332 332 332 332 331 331 332 333 332 332 331 332 334 335 335 335 335 334 333 332 332 336 331 331 332 333 333 333 334 334 331 330 332 329 328 329 330 330 328 327 325 324 322 321 320 320 319 318 318
314 313 313 314 316 316 316 316 317 319 321 321 321 323 325 326 326 326 326 326 326 327 327 326 326 326 328 330 330 330 330 330 330 330 329 328 328 329 330 330 330 330 330 331 331 331 331 330 330 332 333 334 334 334 333 332 331 330 330 330 331 334 336 331 331 331 332 331 327 326 326 326 326 326 325 327 328 330 326 324 322 321 320 319 317 315 313
314 314 315 316 316 315 316 317 318 319 321 321 322 324 326 326 326 326 326 326 326 327 327 326 326 326 327 328 329 329 330 329 328 327 327 328 328 329 329 330 329 328 328 329 329 330 330 330 330 330 330 331 333 334 333 332 331 330 329 329 328 327 327 328 330 330 328 328 327 329 327 326 324 324 325 325 324 324 325 326 327 326 323 320 318 316 310
319 319 320 320 320 320 321 320 320 320 321 321 324 326 326 325 325 324 327 326 326 327 328 328 327 327 327 327 327 328 329 328 327 327 327 327 327 328 328 328 328 328 328 328 328 328 329 330 329 329 328 328 329 331 332 331 330 329 329 329 329 327 327 328 326 326 327 326 325 323 323 323 324 328 326 322 321 322 322 322 320 319 317 316 316 318 316
319 319 319 319 320 322 322 323 322 323 323 322 325 325 325 325 325 323 323 325 330 330 329 329 328 328 327 327 328 328 328 328 328 327 326 327 327 327 327 326 326 325 324 324 326 327 328 330 335 334 328 327 325 326 331 331 330 330 329 328 327 327 327 326 325 324 325 324 327 325 322 325 325 323 322 319 318 318 317 317 317 317 316 315 315 313 313
320 320 320 320 321 321 322 323 324 323 321 324 325 325 324 324 324 325 327 328 328 327 328 328 328 327 327 328 329 330 329 328 327 327 327 327 327 326 326 325 325 323 323 322 323 326 327 329 332 331 325 324 324 326 331 333 325 324 324 323 323 323 322 321 321 319 319 321 322 323 326 323 320 319 321 317 316 316 316 315 318 315 315 316 315 313 311
320 319 319 320 321 321 322 323 325 325 326 326 326 326 325 326 327 325 325 327 327 328 327 327 327 327 328 328 328 327 327 328 327 327 327 326 326 324 323 322 321 322 321 321 323 324 324 327 329 325 322 324 326 328 332 334 332 323 323 323 323 323 322 319 318 319 318 317 320 316 315 315 315 315 315 313 314 316 316 315 315 314 315 314 313 312 312
320 321 322 322 321 320 321 322 325 326 326 324 324 323 326 328 327 325 326 327 327 327 326 326 327 326 325 324 324 324 324 324 325 324 324 323 322 320 319 320 320 320 319 320 319 320 323 323 321 320 321 322 324 326 331 333 330 320 321 321 321 320 320 319 318 318 318 318 316 315 314 314 314 313 311 311 311 314 317 316 313 313 310 310 309 308 308
319 320 320 321 320 320 320 320 323 324 325 326 324 324 327 328 326 326 326 326 327 327 326 326 325 324 323 323 322 322 323 323 323 322 322 322 321 320 320 320 320 320 321 322 319 320 324 325 319 318 319 320 321 322 327 327 324 320 316 316 317 318 317 317 316 315 315 313 314 319 314 313 312 312 311 310 310 310 309 309 309 309 308 308 307 308 310
319 319 320 320 319 319 320 322 323 323 323 324 326 326 328 328 328 327 326 325 326 326 326 325 325 324 323 322 322 322 322 322 322 321 321 320 318 317 316 315 317 318 318 318 318 320 321 321 317 313 314 315 316 320 316 322 316 314 314 313 312 312 312 312 312 311 310 311 313 310 310 310 310 309 309 308 307 307 308 308 307 307 306 306 306 306 307
320 320 319 320 319 319 321 323 325 322 322 323 326 327 328 327 326 324 325 325 325 325 324 324 326 323 323 322 321 321 320 319 318 318 318 318 317 316 313 313 317 317 322 319 318 317 314 314 315 317 312 313 316 320 318 313 310 310 311 311 311 312 311 311 311 310 311 309 308 308 309 308 307 306 307 307 306 306 306 306 305 305 303 304 305 305 305
319 319 318 318 319 319 321 321 322 322 323 324 326 326 325 325 324 323 324 324 324 323 323 323 323 323 321 319 319 318 316 316 315 314 313 314 315 315 313 312 314 318 322 318 315 312 313 313 314 315 319 318 316 319 316 307 307 308 309 310 311 310 309 309 308 308 308 306 306 306 307 307 306 305 305 303 303 304 304 303 302 303 303 301 303 304 305
320 320 319 319 318 320 322 322 321 322 323 324 325 325 325 324 324 323 323 322 322 321 320 319 319 318 318 319 318 316 315 315 313 312 310 309 310 311 312 312 313 318 320 316 314 313 312 313 314 318 321 319 318 316 309 306 306 307 307 307 308 307 307 306 306 306 306 306 305 303 305 307 305 304 304 304 303 303 303 302 301 301 301 301 301 303 304
320 319 320 321 322 324 322 321 320 320 322 324 324 323 324 324 323 323 323 321 321 320 320 318 317 317 316 315 314 314 313 313 311 309 308 307 307 308 313 319 316 317 318 319 314 314 314 315 317 320 320 319 317 315 306 306 306 307 306 307 306 306 306 305 305 305 305 304 304 304 305 304 304 304 304 306 308 304 303 303 302 302 303 302 303 303 303
322 323 323 325 322 322 322 322 323 323 322 321 319 320 321 321 321 320 319 318 318 317 317 316 314 313 312 311 311 311 311 312 312 312 310 307 306 307 314 319 316 320 320 319 313 313 315 322 320 319 319 318 316 308 306 307 306 305 305 306 306 307 305 305 305 305 306 306 305 303 302 302 303 303 302 302 303 305 307 308 305 303 302 303 304 304 303
322 322 322 322 322 323 323 322 321 320 320 318 317 317 319 320 320 320 320 319 317 316 315 315 314 313 313 311 310 308 307 307 308 310 312 313 317 318 320 322 324 322 318 313 312 312 314 318 321 320 320 318 315 305 305 304 305 304 305 305 306 306 306 305 305 305 306 306 309 311 313 308 304 303 306 306 303 304 304 304 302 303 303 305 305 307 306
321 321 321 321 320 320 320 320 319 318 318 317 318 318 319 320 318 317 316 315 314 313 313 312 312 311 310 309 308 308 307 307 305 305 307 309 310 311 310 309 314 323 321 323 321 323 322 322 322 323 322 319 312 306 307 305 305 305 305 306 304 304 304 304 305 305 305 307 306 303 303 302 303 303 305 303 303 303 303 304 303 303 303 303 303 303 304
319 319 319 320 319 319 319 318 317 316 316 318 318 318 319 318 316 314 313 313 312 312 311 310 310 309 310 310 308 307 310 311 306 305 306 307 308 308 311 319 323 321 315 312 313 315 323 324 323 322 321 319 306 307 306 306 307 307 307 306 306 306 306 304 304 304 304 305 305 305 304 304 303 303 303 304 305 303 306 304 304 303 303 303 304 305 304
317 317 317 317 317 317 317 317 316 317 318 318 318 318 319 317 312 310 311 310 310 311 307 307 307 306 307 307 308 309 309 310 311 310 310 309 310 311 313 313 312 318 318 310 312 314 323 321 323 321 319 308 306 307 307 307 308 309 308 310 309 306 308 308 312 311 307 308 306 306 305 305 303 306 308 306 304 305 304 304 303 309 314 309 304 304 303
315 315 315 316 316 317 317 316 316 317 317 316 316 317 317 315 313 314 312 312 311 310 309 308 307 306 307 308 309 310 311 311 313 316 311 311 312 316 318 317 315 321 317 315 314 311 311 311 311 318 316 311 307 309 309 309 309 309 313 308 308 308 308 307 306 305 304 306 306 306 306 305 304 304 304 304 305 305 305 305 304 304 303 303 303 303 302
313 313 314 315 316 316 316 316 316 316 316 316 315 315 314 314 313 312 313 316 312 311 310 309 308 310 311 312 312 311 312 313 315 314 317 314 314 313 317 320 316 317 315 314 311 311 310 311 320 323 321 310 308 308 315 318 311 309 310 313 313 309 310 310 309 306 306 311 307 304 309 307 304 305 305 304 305 305 305 304 303 303 303 302 302 303 302
Wind_Speed
3 4 6 7 2 3 5 3 3 5 3 6 6 3 2 0 2 3 5 4 11 10 9 11 11 12 12 8 4 4 6 6 5 6 6 5 5 6 8 6 7 7 8 8 10 13 13 11 6 3 5 7 6 7 7 7 7 9 9 9 6 4 5 6 6 7 7 6 5 5 5 4 4 5 5 5 3 6 4 6 9 7 5 5 4 3 2
4 6 7 8 3 5 1 5 5 4 3 4 3 3 2 4 4 2 1 1 3 4 6 5 9 3 6 6 5 6 7 8 7 7 6 4 3 4 8 8 7 7 8 9 9 10 11 12 11 7 1 2 5 9 6 5 5 3 6 5 6 6 6 5 5 6 7 6 7 6 6 5 5 5 5 4 3 6 9 10 10 5 3 2 2 3 3
4 5 6 5 1 2 6 8 9 9 3 3 3 5 5 2 6 12 8 12 8 5 8 5 1 3 4 6 7 7 6 7 8 8 7 4 4 3 5 7 8 8 8 8 9 11 10 8 9 8 8 4 5 1 4 5 5 5 7 7 7 7 7 7 7 7 7 6 6 7 7 5 4 4 3 3 3 2 4 6 6 3 2 3 3 3 2
6 4 4 7 6 7 9 8 11 13 10 3 5 5 6 5 5 7 8 13 8 12 14 2 4 5 9 9 6 5 4 5 7 9 8 7 5 6 5 6 8 8 9 9 10 11 9 9 8 9 10 8 7 8 2 5 5 6 7 8 8 7 7 7 7 6 6 6 6 6 6 5 4 3 3 3 3 2 2 2 1 1 2 1 1 0 1
2 5 5 7 3 2 3 6 7 10 10 3 3 2 9 10 2 9 10 3 5 8 8 2 0 3 4 4 6 4 3 4 4 8 8 7 6 7 7 8 7 6 8 9 8 8 10 9 7 3 8 12 11 7 10 5 4 6 7 7 7 7 7 7 6 6 6 6 6 6 6 6 5 4 4 3 3 3 3 2 1 1 1 1 0 1 4
2 5 7 4 1 2 2 4 3 4 6 8 7 6 7 7 7 4 3 1 4 8 10 9 5 2 7 9 7 5 9 7 3 4 5 7 7 5 5 5 6 7 5 5 7 5 7 9 9 8 6 8 11 12 7 5 4 4 7 6 6 7 6 6 6 5 5 5 5 4 4 5 5 5 4 4 3 2 2 1 2 1 3 1 0 2 3
1 3 5 3 0 2 1 5 7 6 6 6 2 1 6 8 7 6 10 11 11 10 6 5 6 7 6 3 5 5 5 6 7 7 6 6 7 8 7 4 3 3 4 3 4 4 4 6 8 9 7 7 9 11 9 6 7 5 6 7 6 6 7 6 6 5 5 5 5 4 3 3 3 3 4 3 3 2 1 1 2 3 2 3 3 3 3
1 3 1 0 2 2 4 7 7 8 3 4 8 4 9 11 8 5 7 8 8 8 11 11 8 6 3 2 1 5 6 9 10 8 9 8 8 8 8 8 7 6 5 4 4 3 1 3 6 6 9 8 10 9 7 8 5 5 6 7 7 6 7 6 6 6 6 5 4 4 4 3 3 3 3 3 4 3 2 3 5 5 4 2 3 2 3
1 2 2 2 3 4 4 5 3 8 4 6 4 3 4 8 10 12 11 10 7 9 11 10 11 12 3 4 1 1 6 7 9 12 11 11 11 7 4 3 3 3 3 3 5 5 2 2 5 6 9 10 10 7 7 6 6 6 6 7 6 6 6 5 5 5 5 5 5 5 5 5 5 5 5 5 4 2 3 2 4 2 3 2 3 4 3
2 3 0 3 1 2 5 4 5 6 6 4 3 0 2 3 11 12 12 12 8 9 11 13 13 8 5 4 0 2 3 4 6 2 3 4 3 4 5 5 5 5 5 5 4 3 4 5 6 8 10 10 9 8 7 6 6 6 6 6 5 6 6 5 5 5 5 6 6 5 5 5 4 3 3 1 1 1 3 2 3 3 2 2 3 3 3
2 3 3 1 2 4 4 7 8 9 8 9 4 2 3 1 8 10 10 10 6 7 9 13 10 8 2 2 1 8 8 6 2 6 3 3 3 3 4 7 8 6 6 5 4 4 8 9 8 9 10 10 9 8 7 6 6 6 6 5 5 6 5 4 4 4 4 4 3 3 3 3 3 3 3 2 1 1 2 2 2 2 2 2 1 1 1
1 3 2 0 1 3 3 5 9 12 11 9 3 2 2 3 10 9 8 8 7 7 6 7 7 5 2 2 5 12 13 11 6 6 9 6 6 4 4 2 4 7 5 3 2 7 9 8 9 9 9 9 8 8 7 6 6 5 5 4 3 3 3 3 3 3 3 4 3 4 4 3 3 3 2 1 2 2 2 3 3 2 2 3 3 2 3
2 4 0 1 0 1 5 9 12 12 9 2 2 5 2 8 12 12 10 9 7 4 5 4 7 5 4 8 10 12 12 11 6 2 4 7 8 8 6 5 4 6 5 3 5 8 8 8 8 8 8 8 7 6 6 5 5 4 3 3 3 4 4 4 3 3 3 3 4 4 4 5 5 4 4 4 3 3 3 2 1 1 1 2 2 3 1
3 1 1 2 1 1 4 11 10 8 3 0 4 1 3 7 10 11 9 9 9 8 5 3 4 10 11 10 9 10 11 10 6 4 7 7 5 4 4 6 5 5 4 4 7 7 7 8 8 7 7 7 6 6 6 4 3 4 5 4 5 5 5 4 4 3 3 2 3 3 3 4 3 3 3 3 4 3 2 2 2 3 2 2 2 3 1
0 1 1 1 1 2 4 13 4 7 3 3 5 8 9 5 8 10 9 8 9 8 11 9 8 10 12 10 10 10 10 8 5 7 10 10 9 9 8 6 5 6 6 8 9 8 8 8 7 7 8 7 6 5 5 4 4 5 5 5 5 4 3 3 2 2 2 3 3 3 3 3 4 3 3 3 3 3 2 2 2 2 2 2 2 2 1
1 0 1 1 2 4 2 4 1 2 0 4 5 4 9 10 7 8 8 9 7 9 8 11 11 10 10 11 9 9 8 1 6 4 5 7 8 9 7 7 6 6 8 8 8 8 7 7 7 7 8 7 5 5 5 5 5 5 4 4 4 3 3 4 3 3 3 3 3 3 4 4 3 3 3 3 3 3 3 4 4 3 3 3 2 2 3
1 2 3 3 2 3 2 1 3 4 5 4 6 4 6 9 8 5 7 9 9 8 8 8 6 8 8 10 11 6 7 2 6 5 4 7 10 14 15 15 7 3 8 9 9 8 8 9 7 7 6 7 5 6 4 5 6 5 5 4 4 4 4 4 5 4 4 4 4 3 4 4 4 3 3 3 4 3 4 3 4 4 5 4 5 5 4
3 5 5 3 4 3 2 2 3 5 6 7 6 5 7 6 6 5 7 7 7 8 7 6 5 6 9 9 8 6 2 12 11 12 13 13 14 15 13 12 14 18 15 2 8 8 8 8 8 6 6 6 7 6 5 5 5 6 6 6 5 6 6 5 5 4 4 4 4 4 5 4 4 4 5 4 4 2 2 2 2 2 3 1 2 3 5
3 3 1 2 4 4 2 2 3 5 7 6 5 7 6 8 5 7 4 2 6 7 5 5 6 8 8 8 6 6 7 11 9 8 10 11 14 14 14 15 15 10 4 15 4 7 7 7 8 8 8 7 6 6 7 7 6 6 6 6 6 5 5 5 4 4 5 4 5 4 4 3 3 2 2 2 2 1 0 1 1 1 2 1 1 2 3
2 4 4 6 6 4 3 3 2 5 7 8 7 7 9 7 1 4 4 3 6 4 4 5 6 8 8 5 3 4 7 10 11 10 8 6 7 6 9 11 13 14 12 7 17 7 6 7 8 9 9 9 8 8 8 7 7 6 6 5 6 5 6 5 5 6 6 8 6 3 2 2 4 4 3 4 5 3 2 2 5 3 2 2 3 3 5
4 3 3 4 7 3 1 3 5 6 7 8 10 9 10 11 3 4 2 2 4 4 6 7 7 8 7 5 3 5 6 9 9 10 12 11 8 6 8 8 8 8 11 10 6 18 3 7 9 9 10 9 8 8 7 6 6 6 4 3 3 3 3 3 2 3 4 5 6 6 6 6 6 6 4 4 3 3 2 1 2 1 5 4 3 4 4
3 1 4 4 5 6 8 6 4 5 7 6 7 9 11 13 7 3 5 4 2 5 5 6 6 7 3 5 5 2 6 10 12 13 14 14 15 11 10 10 10 11 10 12 6 12 11 6 8 9 9 8 7 8 7 6 5 5 4 5 5 5 4 5 5 6 6 5 5 6 7 7 7 6 10 11 7 3 3 8 7 4 2 3 4 5 6
4 5 5 2 3 6 7 6 6 8 5 4 6 9 11 13 10 4 4 12 9 4 4 2 4 2 1 7 7 3 4 5 4 11 12 12 12 14 14 13 11 12 10 12 10 3 14 4 6 7 7 6 5 4 4 5 7 7 7 7 6 6 6 6 5 6 6 6 5 6 6 6 6 7 5 8 13 14 12 10 10 12 12 8 5 3 4
5 6 8 5 2 4 7 8 8 8 4 3 7 8 9 9 12 8 5 1 6 7 6 2 1 2 6 5 5 6 5 7 8 10 5 5 5 9 10 11 10 10 10 9 12 10 7 10 5 7 8 6 7 7 7 7 7 7 7 8 7 6 6 5 6 5 5 5 5 6 5 5 6 6 6 6 5 10 12 11 11 11 11 11 11 11 10
5 4 4 4 5 7 7 7 8 8 4 3 6 8 9 8 11 10 3 1 2 4 5 4 1 3 5 8 7 5 6 8 9 3 3 9 9 5 7 9 7 9 9 8 9 10 6 11 2 8 9 6 6 7 7 7 8 8 7 8 8 6 6 5 6 5 5 5 5 5 6 5 5 6 7 7 6 3 4 6 7 8 10 11 11 10 9
6 7 7 5 3 6 6 5 5 4 5 5 5 5 8 3 7 10 1 1 5 2 1 4 3 5 5 5 6 12 12 14 13 10 1 6 3 6 9 10 7 5 9 12 13 12 13 5 0 8 8 6 6 5 6 6 6 7 7 7 7 6 6 6 6 5 5 5 6 5 5 4 4 3 3 5 7 7 6 5 4 4 5 6 6 6 6
4 5 4 5 5 6 5 5 6 8 7 6 6 6 7 1 5 9 1 1 5 3 2 0 3 3 5 5 3 6 16 13 11 10 9 5 3 5 8 8 9 11 14 14 13 13 12 7 6 8 7 5 6 6 7 8 8 8 7 6 5 9 12 7 5 5 5 5 5 5 5 5 5 6 6 5 6 7 6 6 6 5 3 2 1 2 2
4 4 3 3 6 7 9 10 9 8 5 4 5 6 6 5 1 9 8 4 6 8 6 5 4 3 5 7 6 4 2 11 13 13 11 5 1 2 3 7 4 7 13 14 13 12 11 10 9 9 7 4 6 7 8 8 8 8 7 7 7 6 5 6 5 5 5 5 5 6 6 6 6 6 5 5 6 7 7 7 6 5 4 1 1 3 5
4 5 4 3 5 8 9 9 7 4 6 6 4 5 4 8 2 5 9 6 6 8 8 8 7 6 7 7 7 7 6 7 6 4 6 6 5 2 3 6 2 3 8 11 11 12 12 11 10 10 7 5 6 6 7 8 7 7 6 6 6 6 5 5 5 6 6 6 6 6 6 6 6 6 6 6 7 7 7 7 6 5 5 4 4 4 2
7 5 4 5 6 7 8 8 4 6 7 7 6 5 4 6 6 1 7 9 6 6 6 7 8 8 7 8 9 8 7 7 6 4 2 5 5 1 6 5 4 8 10 9 10 12 13 12 11 9 6 5 6 6 8 8 7 7 7 7 6 6 6 6 6 7 7 7 7 8 7 6 6 6 7 7 7 7 7 6 6 6 6 5 5 5 6
8 7 5 5 7 5 4 4 3 6 6 6 4 4 4 3 5 6 1 7 7 4 3 5 7 7 7 7 6 7 7 8 8 7 6 5 4 5 9 7 4 8 9 9 8 11 13 12 11 8 6 7 7 7 7 7 6 7 7 7 8 12 14 12 9 7 6 6 7 7 7 7 6 7 8 7 7 7 6 5 5 5 5 4 5 5 4
9 8 7 5 4 3 5 4 4 4 5 5 7 8 4 1 0 4 7 6 5 5 4 7 8 6 6 8 7 4 7 8 7 7 11 13 12 11 12 13 11 8 7 8 9 9 11 12 11 7 6 8 8 8 8 8 7 8 7 7 8 7 8 11 7 8 7 6 6 7 6 7 7 7 7 6 6 6 6 6 6 5 5 5 5 4 3
7 9 7 6 5 5 5 4 4 5 3 6 6 7 3 2 4 5 3 2 1 1 5 4 2 3 6 12 14 9 8 11 12 14 16 14 12 13 13 12 11 10 8 8 10 9 10 10 8 7 8 9 9 8 8 8 7 7 7 7 6 7 6 7 7 7 7 7 7 7 6 7 6 7 6 5 5 5 6 6 5 5 6 5 5 4 4
7 7 8 7 5 5 6 7 4 2 3 1 5 5 4 5 6 2 4 3 2 4 7 6 3 1 2 8 14 17 15 14 12 12 13 15 12 12 12 11 11 9 9 9 8 9 8 7 7 7 7 8 7 7 7 7 7 7 6 7 7 7 7 6 6 6 6 6 6 7 7 6 6 6 6 6 5 5 5 4 4 4 5 5 5 5 9
6 7 7 8 6 6 5 4 1 4 2 2 5 5 7 7 5 2 4 4 4 4 7 7 5 1 5 6 3 4 8 10 12 12 11 11 11 10 10 11 10 10 10 8 9 9 7 6 6 7 8 8 8 6 5 7 7 7 7 7 7 7 6 6 6 5 5 5 6 7 6 6 6 5 6 6 5 5 5 5 5 5 5 5 5 5 6
7 7 6 6 6 5 2 2 7 4 1 3 5 6 6 8 3 5 2 2 1 3 5 6 6 7 6 5 4 6 8 10 10 10 9 10 9 9 10 12 12 12 10 9 8 6 6 7 11 12 7 7 7 6 5 6 6 7 7 7 6 6 6 6 6 6 5 4 4 5 6 6 6 5 5 4 5 5 5 4 4 4 5 5 4 5 5
5 6 7 7 6 4 1 5 6 8 6 5 6 5 6 3 2 1 2 5 7 6 3 4 6 7 5 4 6 7 8 9 9 8 7 7 8 9 10 10 10 10 10 9 5 4 5 7 12 14 9 6 6 6 9 13 8 7 7 7 6 6 6 7 7 6 6 6 6 5 6 6 5 5 4 4 4 3 3 3 3 3 3 4 5 5 5
7 7 7 7 7 3 2 3 3 3 4 4 4 4 3 2 1 2 4 5 7 5 3 4 5 5 6 8 9 9 8 8 9 10 9 9 9 11 10 9 7 8 9 5 2 4 5 8 13 9 7 7 7 8 11 16 12 8 6 6 6 6 6 6 6 6 6 6 6 6 6 6 6 6 6 6 7 7 7 6 6 6 6 5 3 3 3
7 6 5 4 1 3 2 1 1 3 5 6 4 3 2 1 1 4 6 7 7 7 7 6 6 8 9 10 9 9 9 8 9 10 11 11 11 13 11 8 7 6 5 3 4 5 6 7 6 8 7 7 8 8 10 14 11 7 6 6 6 6 6 5 5 4 4 4 5 6 6 7 7 7 7 6 7 6 6 7 6 5 5 4 4 4 4
5 5 3 2 2 1 1 1 1 2 2 2 4 4 3 2 3 4 6 8 8 7 7 6 7 8 8 10 11 9 8 8 9 10 11 10 11 12 11 9 6 5 6 8 6 5 8 12 9 7 7 6 7 7 7 11 10 7 7 7 7 7 7 7 6 7 7 6 7 7 7 7 6 6 6 6 6 6 5 6 6 6 5 5 6 4 4
5 4 2 1 1 2 2 2 3 2 2 2 3 2 2 3 4 5 7 8 7 8 7 7 8 8 9 10 10 9 8 8 8 8 8 10 10 9 10 8 4 5 5 6 6 7 9 9 8 8 7 8 8 9 8 12 10 8 8 8 8 7 7 7 7 7 6 7 7 7 6 5 6 6 5 5 5 5 6 6 6 6 6 6 6 5 5
5 2 2 1 2 3 2 2 4 2 2 1 3 2 3 4 5 6 7 8 8 8 9 8 10 10 8 9 9 9 9 9 10 9 8 8 8 8 10 6 3 6 10 11 10 9 8 8 8 8 8 9 9 15 14 9 8 8 7 7 7 7 7 7 7 6 6 7 6 6 5 5 5 5 5 5 5 6 7 6 6 5 5 5 5 6 6
4 1 2 2 3 3 4 4 5 4 4 3 3 4 6 6 6 6 6 7 9 9 9 9 9 10 9 9 10 9 9 9 11 11 11 10 8 7 7 5 5 7 13 8 8 8 8 7 8 8 12 11 11 17 14 8 7 7 7 7 7 7 7 7 6 6 7 7 7 6 6 6 6 6 6 6 6 6 6 5 4 4 4 4 5 6 6
3 2 2 1 3 2 4 6 6 4 4 5 4 6 6 6 7 7 7 8 8 8 9 9 8 8 8 8 9 8 8 8 8 7 9 8 8 7 5 6 5 8 11 7 7 8 8 8 8 13 19 18 18 15 9 7 7 7 7 7 7 7 7 7 7 6 6 6 6 6 6 5 5 5 5 6 5 5 4 3 3 3 3 5 5 6 6
3 3 3 2 0 4 5 6 4 3 3 5 6 6 5 9 9 8 8 9 10 7 7 8 8 7 7 7 8 7 6 6 5 6 8 8 8 5 4 7 7 6 8 10 8 8 7 8 12 17 15 17 16 13 8 7 7 7 7 7 7 7 6 6 6 6 5 5 5 5 4 5 4 5 4 4 4 4 3 3 3 2 3 4 4 4 4
4 4 4 6 5 6 6 7 6 6 4 8 9 8 6 6 9 9 7 8 8 7 7 8 8 8 9 9 8 8 8 7 6 6 5 5 6 4 3 6 5 7 11 11 8 8 8 14 15 14 14 13 13 8 7 6 6 6 7 7 6 6 5 6 4 4 4 4 3 4 3 2 3 3 4 5 3 3 2 2 2 2 2 2 1 1 1
5 5 6 7 7 8 9 9 11 12 10 9 9 8 7 6 6 8 7 8 8 8 8 7 7 6 6 8 9 9 8 8 7 6 6 6 5 5 6 7 7 10 9 7 7 7 7 9 10 13 13 12 10 6 6 6 6 6 6 5 5 4 3 3 4 4 4 4 3 3 3 3 3 2 2 3 3 3 3 2 1 1 0 2 3 1 1
6 6 7 10 10 9 9 9 9 7 8 9 8 6 5 5 7 8 8 8 8 7 7 7 7 6 6 6 5 6 7 9 11 5 3 6 5 5 6 7 7 9 9 8 8 8 13 12 12 12 12 10 6 5 5 6 6 5 5 4 3 3 3 3 3 4 4 3 3 3 3 2 1 1 1 2 2 2 3 2 1 1 0 1 1 1 0
8 8 8 9 10 9 9 9 9 8 6 4 9 8 8 9 9 8 8 8 9 8 7 6 6 5 5 5 6 6 5 2 3 7 5 5 5 5 4 5 9 9 6 5 5 5 9 10 10 11 11 9 6 6 5 5 4 4 5 6 5 4 4 4 4 4 4 5 4 3 3 3 2 1 1 1 1 1 1 1 2 2 2 2 1 1 1
8 9 8 8 8 7 7 6 7 7 6 5 6 6 6 7 8 7 6 6 7 6 6 5 5 5 5 5 4 4 5 6 6 6 6 4 3 3 2 3 3 5 5 3 3 5 9 12 10 10 7 4 5 4 6 7 6 5 5 4 4 4 4 4 4 4 4 4 4 4 4 4 4 3 3 2 2 2 2 2 2 3 6 4 4 4 4
7 7 6 6 6 6 7 6 5 5 5 5 4 5 5 7 7 6 6 7 6 6 6 5 5 5 5 5 5 5 5 5 5 5 5 3 2 1 1 0 0 1 1 1 0 2 0 1 3 3 4 4 4 4 4 5 5 6 5 6 5 5 4 4 4 3 3 3 4 4 4 4 4 3 4 3 3 3 4 3 4 4 5 6 6 6 6
6 5 6 6 6 7 7 7 6 6 6 6 7 7 7 6 7 7 7 7 7 6 6 6 6 3 4 5 5 4 4 5 4 3 3 2 1 2 2 3 2 2 1 1 2 3 3 2 3 4 5 4 4 4 5 6 4 4 4 4 5 6 5 5 4 4 3 3 3 3 2 3 4 4 4 4 4 4 4 6 6 6 6 6 6 5 5
Wind_Direction
356 345 324 328 273 209 257 291 11 36 6 21 32 344 307 294 124 206 270 231 168 204 195 196 188 174 176 169 153 131 129 121 113 102 93 96 108 112 97 90 83 83 79 83 98 108 114 119 116 124 151 157 162 168 167 171 168 176 173 173 166 153 158 172 167 155 151 155 155 170 174 176 191 210 220 221 186 127 145 207 230 217 200 186 169 181 192
348 328 321 313 10 322 28 13 8 10 18 36 356 319 306 94 63 305 5 321 164 40 326 222 213 197 129 132 131 126 132 138 138 120 117 122 131 117 118 115 108 106 104 100 100 104 115 126 127 118 48 301 189 161 157 146 144 109 119 130 126 124 133 142 142 144 148 152 160 164 168 179 194 209 220 235 207 150 164 193 230 231 195 164 160 188 208
320 304 311 312 78 235 68 12 7 355 333 10 354 297 327 39 34 10 31 50 359 319 333 256 95 125 118 113 140 148 150 147 140 129 130 143 147 157 124 122 127 126 118 114 116 117 119 121 126 124 117 90 345 347 109 113 116 128 127 122 119 127 134 146 149 156 157 155 158 166 176 183 182 200 217 229 229 220 174 191 214 216 178 186 184 172 164
315 303 343 338 355 74 64 26 359 353 338 14 348 1 330 45 38 356 18 37 353 322 334 39 126 145 151 147 136 138 165 175 144 132 147 156 170 168 152 137 138 138 136 139 139 138 140 141 139 136 121 100 65 352 338 124 131 128 123 126 130 134 141 143 148 150 151 148 151 153 158 171 178 189 203 212 227 227 253 250 233 125 135 145 117 112 80
271 279 336 316 342 55 42 348 339 327 312 308 258 353 14 19 6 59 37 357 315 299 317 24 145 158 105 134 150 154 170 191 156 142 154 170 176 176 162 155 151 152 151 151 153 151 147 149 134 122 128 121 111 78 340 326 111 115 120 126 125 126 132 138 141 143 145 149 147 148 155 159 168 172 183 198 205 210 220 214 140 140 185 144 87 65 68
252 302 330 338 35 134 204 230 284 293 317 342 9 13 343 15 43 99 90 13 308 348 1 3 315 269 193 183 194 169 156 157 148 130 153 183 180 173 174 166 160 156 159 157 154 182 159 140 128 131 115 112 118 118 119 313 327 116 121 121 124 127 128 135 138 138 139 137 138 144 146 148 155 167 175 197 207 213 208 179 173 158 40 14 93 117 127
273 307 357 33 73 223 265 307 301 308 302 2 334 71 3 13 31 38 30 9 3 353 334 311 301 291 265 249 148 115 135 144 152 163 174 183 185 184 173 175 176 185 165 155 134 148 139 128 124 118 115 122 124 120 129 175 220 145 122 125 128 132 130 135 137 140 139 133 133 137 143 154 157 163 180 190 206 218 207 189 98 78 221 229 62 63 83
28 30 17 93 229 248 296 298 296 298 304 15 1 324 6 7 23 7 38 10 351 339 339 340 332 326 287 68 67 149 165 158 154 161 184 192 189 185 186 172 175 172 161 165 144 113 60 92 106 111 126 135 120 118 145 193 172 134 128 125 130 131 131 138 141 145 141 137 135 140 148 159 173 184 189 195 200 200 165 144 136 167 192 150 146 154 157
188 187 145 176 270 323 331 357 348 14 358 347 22 324 313 353 7 11 349 356 359 337 349 343 341 339 334 77 13 311 166 170 172 173 185 185 192 185 152 135 141 118 93 83 91 88 61 57 106 129 127 112 111 134 163 167 135 123 119 120 126 127 127 130 135 140 142 143 147 156 165 172 185 193 195 206 203 177 149 137 114 150 179 163 169 176 181
124 124 38 3 21 252 271 237 274 328 337 330 319 271 288 350 6 5 358 343 335 351 349 350 342 338 83 87 333 303 260 189 180 208 183 170 125 102 112 94 100 113 98 94 99 124 120 104 122 123 121 125 137 145 140 133 120 114 114 121 124 125 132 138 144 147 153 155 159 168 171 183 189 200 202 158 147 149 144 148 155 187 159 146 172 178 182
76 61 117 180 166 250 231 291 312 317 315 326 328 74 298 319 16 354 349 342 347 5 1 340 350 11 145 198 343 358 345 325 219 151 159 123 96 111 137 142 136 137 129 126 151 129 116 121 131 129 128 132 130 128 130 126 123 123 129 134 140 140 142 137 141 141 140 142 144 146 164 184 181 195 193 176 148 135 127 124 131 134 134 113 68 28 29
79 138 95 219 210 246 276 301 317 314 313 324 65 42 273 319 353 338 339 332 346 345 8 345 345 26 340 295 310 329 324 317 287 179 150 135 128 126 131 129 149 131 124 131 139 124 129 135 137 127 125 122 125 127 126 128 129 138 144 144 128 111 97 90 90 91 96 102 130 159 178 179 183 170 149 127 115 125 108 118 124 127 125 135 178 211 236
41 81 283 359 345 344 343 319 311 311 308 334 95 200 245 328 327 322 321 321 330 356 2 27 344 296 269 272 292 309 311 320 301 286 118 137 149 148 148 146 150 128 131 135 133 135 137 134 126 121 122 121 123 124 123 124 142 138 123 102 94 96 92 95 102 115 129 135 147 158 162 167 169 157 156 156 151 156 174 148 129 178 158 174 189 233 212
17 310 118 210 234 233 283 319 321 311 348 218 218 241 303 305 307 311 314 318 336 351 355 337 296 293 302 304 311 313 310 299 269 190 133 126 120 120 133 149 143 132 141 129 121 117 129 127 123 122 121 118 119 123 124 132 127 112 113 113 113 118 128 139 146 147 149 163 158 148 152 142 137 150 160 150 161 162 150 160 170 203 205 203 220 265 262
52 41 68 9 315 267 14 327 338 16 70 281 283 310 309 301 304 312 325 343 343 2 334 330 318 315 317 323 320 312 310 294 207 182 152 147 147 144 150 149 159 147 137 132 127 129 132 128 125 126 122 123 128 121 125 134 129 130 129 132 134 135 141 142 155 165 174 162 145 140 147 146 144 158 161 154 161 148 153 170 197 224 224 211 222 261 310
148 298 149 195 202 254 3 26 48 317 121 271 297 318 302 310 313 327 333 331 347 342 333 325 324 319 316 317 320 315 323 255 168 161 145 136 137 139 150 156 159 144 133 126 125 129 131 128 130 131 130 130 129 126 130 136 128 128 128 132 135 146 159 179 182 184 174 167 159 153 152 150 147 144 149 159 157 167 162 163 170 196 219 216 205 187 192
150 220 232 253 264 267 266 228 231 251 259 263 275 268 272 293 309 335 323 315 329 334 328 319 310 310 311 304 296 301 296 139 127 116 77 66 60 49 31 3 357 117 133 131 127 126 132 130 131 130 129 127 124 125 138 130 136 136 141 146 158 172 179 183 186 179 171 166 170 161 167 159 156 161 163 152 150 177 155 143 155 177 200 190 181 178 181
270 258 237 307 309 284 292 260 242 254 279 270 254 274 299 284 293 315 306 310 316 322 326 318 301 289 297 300 296 309 81 97 94 103 104 104 100 95 90 71 35 360 338 77 123 130 133 131 128 128 124 124 128 140 139 138 143 148 150 158 167 178 178 179 178 164 162 181 185 180 172 175 172 178 168 175 168 191 148 185 183 193 241 246 251 199 187
31 311 346 300 290 306 324 270 274 268 260 272 282 288 276 279 309 316 307 287 302 303 308 293 288 291 292 291 306 341 47 75 69 71 100 111 120 129 131 135 132 129 19 331 329 137 131 126 124 124 124 124 131 136 143 151 153 155 161 166 176 175 180 177 174 170 175 190 200 193 186 166 158 153 137 125 103 79 74 118 105 149 106 110 108 78 127
198 247 301 299 296 278 252 225 267 292 294 294 289 273 271 271 275 289 284 285 290 293 298 302 299 292 285 306 3 24 53 79 82 73 47 67 100 119 132 138 132 124 105 45 327 317 117 122 121 126 126 132 139 144 148 155 156 157 165 174 178 183 183 181 185 190 193 193 156 97 61 82 107 102 82 93 96 70 69 93 123 106 91 86 92 115 117
279 288 292 301 317 308 315 275 248 251 262 285 295 290 293 299 6 345 296 208 279 314 309 309 316 303 307 2 44 95 95 88 88 96 101 86 62 60 62 45 44 61 93 92 354 302 239 129 129 129 134 139 144 148 155 158 161 167 170 172 161 167 179 159 160 131 131 116 121 120 100 80 55 39 22 25 75 93 22 298 318 87 118 81 64 54 79
331 263 286 354 3 319 316 318 290 290 290 282 291 305 311 309 331 60 332 302 325 312 310 309 319 325 350 56 313 112 119 126 129 130 132 136 128 121 112 112 114 107 108 104 92 304 279 150 136 134 136 141 151 157 163 157 133 115 112 103 97 98 100 106 107 108 105 106 118 119 119 116 107 82 61 54 23 40 68 19 16 349 112 126 141 122 102
260 272 276 259 223 264 258 267 303 305 298 303 321 317 309 308 315 75 17 328 341 327 300 312 315 334 66 149 185 220 134 126 176 150 137 122 125 135 142 135 136 132 136 123 117 38 304 286 120 129 130 130 123 119 118 110 116 118 116 103 93 87 84 81 95 102 105 108 113 115 121 122 117 112 95 41 37 35 34 32 23 24 40 52 42 48 123
264 269 270 273 250 259 285 291 295 291 287 299 317 305 304 310 312 335 86 241 290 296 285 244 229 238 134 141 153 135 94 70 30 5 31 95 124 140 134 127 132 131 134 122 116 107 327 297 108 102 100 102 107 104 101 110 113 114 112 108 104 103 100 100 90 94 97 105 112 122 128 133 132 132 118 101 46 27 33 27 20 25 33 38 39 45 51
247 260 273 272 262 271 273 278 277 274 270 297 303 301 300 319 306 304 17 321 235 264 277 281 263 247 186 164 159 136 110 97 106 134 217 155 155 135 122 116 124 124 117 99 80 83 85 302 62 94 93 91 96 98 103 110 114 110 112 111 115 111 107 102 101 104 105 102 104 110 126 135 150 152 141 135 127 113 28 31 45 48 42 40 43 44 54
243 272 276 270 274 276 284 300 295 289 298 310 303 304 299 354 290 284 336 268 275 264 280 292 301 298 284 245 167 136 127 132 143 136 339 294 141 118 137 134 138 143 131 118 117 126 121 239 243 92 87 85 86 90 92 92 95 102 105 109 112 117 115 113 107 105 107 114 109 105 108 118 129 130 134 139 140 136 125 122 87 74 81 69 70 70 54
279 284 301 331 322 302 296 297 287 293 301 309 308 305 305 68 240 269 257 223 290 317 292 130 159 239 293 316 314 148 142 146 139 138 145 208 216 177 159 143 151 150 131 125 126 134 135 144 99 84 81 80 83 84 84 84 84 82 83 82 84 95 98 100 102 100 97 90 92 92 88 88 88 90 90 97 119 130 130 113 102 91 75 59 2 275 148
301 317 351 302 292 297 298 298 296 297 289 302 320 321 328 37 95 298 323 359 320 319 326 0 5 13 5 2 360 4 73 143 156 163 159 161 154 261 172 126 161 159 128 125 123 120 114 105 93 85 73 69 84 89 89 86 83 80 79 77 78 68 58 69 73 79 77 78 80 83 91 92 96 94 94 93 92 95 96 97 101 102 89 55 139 206 146
312 315 315 276 267 274 282 288 303 318 333 325 317 320 18 64 59 309 314 334 321 313 328 360 1 21 17 31 38 42 30 12 0 34 58 58 32 324 103 99 128 98 94 102 103 102 96 87 80 73 57 52 69 80 85 85 85 85 84 86 85 79 72 71 76 73 69 67 66 73 78 80 81 82 79 85 88 87 85 90 93 81 72 47 44 48 74
300 302 302 305 304 307 311 309 331 345 328 311 324 342 13 99 122 322 314 311 318 315 343 8 10 11 27 48 52 65 55 36 22 357 22 84 90 32 59 61 94 84 77 70 86 92 89 85 80 73 62 62 72 75 79 80 79 76 74 67 65 72 77 81 77 74 71 68 67 68 70 70 72 78 84 87 89 92 94 95 87 84 74 57 60 52 51
304 301 302 304 310 316 335 322 299 285 288 309 331 349 19 64 110 124 220 273 287 299 33 34 8 16 52 57 56 83 81 61 42 18 30 38 67 82 72 29 20 98 101 102 97 92 91 87 79 74 66 75 79 77 76 74 73 73 69 69 71 74 79 78 76 78 77 75 69 71 70 68 70 83 90 92 93 93 91 87 85 82 83 79 67 63 44
308 311 314 315 308 327 327 324 313 320 322 337 358 357 347 63 195 172 181 221 260 305 23 64 84 84 84 91 83 59 77 93 110 79 57 49 44 44 52 48 17 18 57 66 60 67 76 79 76 72 74 76 75 74 77 76 75 71 70 71 70 66 68 75 76 72 74 73 72 71 74 78 73 75 81 88 98 103 101 94 89 84 80 71 62 40 11
312 316 318 320 325 318 312 307 317 309 337 18 352 318 306 261 233 235 165 176 246 34 66 72 150 156 133 111 101 93 110 100 84 77 73 58 49 51 48 53 33 359 14 38 73 71 74 80 82 71 69 71 75 79 83 86 84 83 77 74 73 72 70 65 74 77 75 74 73 77 76 76 78 75 76 83 90 95 98 96 97 91 80 75 75 69 65
276 274 276 276 263 273 290 296 297 310 46 27 271 272 256 246 247 239 101 123 104 117 139 165 216 185 154 123 131 141 143 132 118 107 107 109 105 102 97 82 77 54 33 7 25 55 58 61 68 70 68 67 70 76 84 87 86 88 84 84 77 72 66 61 61 73 78 74 74 76 76 79 77 82 80 78 79 86 95 105 103 92 83 74 66 67 53
261 268 270 271 270 262 246 243 334 36 15 249 242 247 246 251 266 67 101 103 125 136 140 161 157 131 20 20 19 92 103 105 110 115 121 117 115 111 109 103 93 80 60 31 22 31 33 41 49 58 61 60 59 61 75 93 98 90 85 82 81 76 73 68 65 63 77 91 97 94 91 89 88 85 86 84 81 80 85 87 91 90 90 80 67 61 54
278 280 278 277 275 267 269 98 105 112 125 261 252 234 253 261 316 44 52 55 131 166 159 148 142 133 131 125 102 102 107 108 109 113 115 112 114 113 109 103 98 90 83 63 37 34 37 45 54 57 53 47 42 39 66 82 74 80 85 83 79 75 69 64 61 57 49 49 72 98 112 113 108 101 94 89 86 88 97 101 103 101 103 100 90 70 55
278 275 278 274 270 256 160 137 153 158 199 215 220 237 255 288 1 26 82 65 51 2 9 95 113 115 112 103 91 86 92 101 104 102 101 99 99 92 88 84 81 85 80 73 22 9 37 46 50 52 48 44 45 64 88 93 91 88 86 82 81 76 71 60 53 52 50 50 57 64 70 68 60 62 65 65 63 60 59 67 74 84 85 83 77 73 61
284 280 278 276 271 222 134 138 150 149 153 181 216 231 235 275 325 48 73 77 80 63 51 67 83 77 83 84 83 88 88 91 99 101 97 88 84 81 69 73 75 77 72 57 350 25 35 46 50 53 52 57 67 81 91 94 94 90 89 88 85 79 77 73 68 60 61 61 68 70 72 79 82 72 58 52 52 56 57 57 58 65 66 74 80 82 86
285 288 294 307 1 66 74 72 107 137 168 182 188 192 210 223 56 69 87 93 91 83 70 58 72 91 89 87 87 86 85 86 90 92 91 88 85 86 82 69 60 72 106 128 73 53 42 51 57 59 59 64 73 73 81 85 82 80 80 82 81 83 83 82 80 73 63 66 72 74 74 74 75 75 70 70 69 63 62 61 58 57 68 66 64 60 62
289 295 300 338 44 70 122 165 155 158 149 149 165 179 182 156 128 106 100 98 103 108 106 110 102 98 96 100 97 91 90 90 92 94 96 96 92 89 85 73 68 74 75 68 63 54 53 58 63 62 59 56 60 62 65 71 73 70 69 65 62 57 52 50 48 48 44 45 51 60 71 81 86 84 83 78 73 71 66 58 54 52 51 48 45 47 65
289 293 323 38 138 198 195 168 138 111 89 107 136 157 172 143 128 106 98 101 100 98 98 102 97 94 99 99 97 98 96 92 88 90 101 101 95 93 93 90 81 81 78 77 68 63 60 64 68 67 63 65 67 69 66 61 64 64 66 67 67 65 61 59 59 54 51 55 62 66 67 70 73 77 79 77 73 70 61 55 52 50 56 57 48 39 36
299 324 336 288 165 183 194 167 124 111 77 62 87 73 81 94 100 102 104 103 100 96 94 89 95 99 92 91 92 90 85 79 79 71 65 73 89 103 94 85 67 76 72 68 62 63 63 64 67 71 71 69 68 69 70 67 65 67 69 69 68 66 64 60 57 52 53 63 64 64 60 59 71 75 70 68 63 60 63 62 58 53 48 49 53 51 51
307 274 262 244 217 205 166 147 132 139 139 156 134 116 107 103 98 92 90 95 100 100 96 93 90 89 89 87 87 79 78 77 76 78 74 63 61 70 91 99 62 68 72 72 70 70 68 69 72 74 76 76 74 71 68 64 64 65 65 65 66 66 62 61 60 57 61 62 60 56 56 63 68 69 67 64 64 68 75 72 70 66 60 54 50 54 52
310 287 276 223 230 210 143 129 134 156 158 143 132 123 119 107 96 92 88 87 84 90 97 94 89 86 89 89 86 84 77 78 80 81 89 83 67 50 62 81 69 66 67 72 72 75 73 74 77 77 76 76 75 72 69 65 66 68 69 69 68 68 67 63 59 62 64 66 68 66 69 72 76 79 84 85 86 86 86 86 80 71 65 60 58 64 63
329 330 329 326 181 121 117 117 128 118 123 108 102 96 105 108 103 103 104 102 98 85 86 90 90 88 82 80 82 84 85 83 86 95 97 93 91 65 29 67 63 65 72 76 76 75 76 79 84 83 83 81 80 78 73 72 71 73 73 74 72 73 75 78 79 78 82 84 85 90 96 105 114 113 112 100 96 92 89 87 75 64 64 62 68 84 93
48 35 46 76 75 86 99 93 69 41 67 92 81 64 49 73 100 95 91 90 91 93 95 99 101 101 101 95 88 85 79 74 66 67 78 101 111 144 108 84 83 85 82 81 83 84 93 95 93 94 91 90 89 87 89 92 90 89 87 89 90 92 94 103 101 97 92 90 95 99 95 79 67 67 81 93 100 108 116 103 70 61 82 99 102 119 123
64 74 80 86 86 93 98 97 98 102 96 78 79 86 84 78 76 88 86 85 90 95 95 95 94 98 100 110 114 109 100 91 69 59 81 80 87 96 90 92 89 91 93 96 104 112 111 111 111 111 110 111 110 108 106 105 100 101 98 105 110 121 122 126 130 136 127 119 110 100 99 104 104 107 106 97 103 118 133 122 105 75 355 54 42 44 45
60 66 76 85 89 91 93 93 89 84 90 105 108 91 76 66 76 80 84 86 83 81 82 86 90 92 96 92 92 105 122 127 116 89 80 105 106 110 119 125 129 127 118 118 120 121 121 120 121 120 119 119 116 123 127 127 130 127 131 129 139 142 148 144 146 145 142 143 127 115 101 80 91 123 137 145 163 159 159 159 182 220 263 116 133 167 138
46 63 76 82 81 82 86 89 87 81 59 78 103 103 99 91 84 83 84 88 92 91 93 94 96 95 93 103 109 108 104 80 104 139 162 139 133 133 135 126 119 112 114 122 125 134 139 138 138 138 136 130 138 148 154 155 156 158 159 162 166 171 174 175 188 178 166 159 163 163 169 172 185 207 208 214 225 205 190 190 187 192 186 178 175 192 213
48 49 45 58 71 69 70 81 90 99 105 89 85 89 88 94 94 95 98 96 96 98 91 92 94 95 97 94 88 93 92 91 90 105 116 127 130 120 108 102 106 119 123 124 144 159 152 153 159 157 150 152 161 162 166 168 169 174 182 182 180 186 194 201 211 200 168 180 181 181 195 211 213 211 214 197 218 223 216 207 194 184 170 171 182 202 209
52 58 47 48 55 55 57 54 57 68 77 80 77 81 87 87 96 102 102 101 98 95 95 90 85 93 93 91 88 90 92 96 105 114 116 121 107 131 124 131 144 143 140 117 273 242 263 150 176 164 160 170 184 188 195 195 183 175 177 190 194 196 198 204 202 212 199 182 193 195 203 216 223 221 225 236 234 207 210 204 197 204 192 200 204 212 212
60 60 60 54 55 53 50 43 42 56 58 64 77 88 96 101 102 103 102 106 108 114 114 113 101 89 99 107 112 111 116 119 116 118 133 139 170 227 239 219 240 248 219 228 263 275 284 284 245 207 185 174 177 200 217 213 212 208 195 190 201 209 204 203 208 213 228 211 192 203 214 223 225 226 240 234 234 219 205 208 211 214 218 219 221 220 223